Simultaneous Nadir Overpasses (SNOs) Predictions

Prediction of SNOs between AQUA and METOP-B Satellite Orbit:

Table of predicted SNOs for the next 14.0 days since TLE Epoch: 3/14/2015
Index Date (AQUA) Time (AQUA) Lat,Lon (AQUA) SZA (AQUA ) Date (METOP-B) Time (METOP-B) Lat,Lon (METOP-B) SZA (METOP-B ) Distance(km) Time Diff (sec)
1 03/15/2015 00:53:58 73.69, 161.16 76.08 03/15/2015 00:52:56 73.68, 161.09 76.08 2.63 62
2 03/15/2015 01:43:25 -73.77, -31.38 103.85 03/15/2015 01:43:36 -73.77, -31.38 103.85 0.65 11
3 03/15/2015 02:32:59 74.10, 135.52 76.50 03/15/2015 02:34:09 74.11, 136.78 76.45 38.48 70
4 03/17/2015 20:28:12 73.71,-132.43 74.98 03/17/2015 20:27:20 73.71,-132.45 74.99 0.59 52
5 03/17/2015 21:17:39 -73.79, 35.04 104.95 03/17/2015 21:18:00 -73.80, 35.11 104.94 2.44 21
6 03/17/2015 22:07:21 74.53,-159.06 75.85 03/17/2015 22:08:25 74.53,-155.74 75.71 98.41 64
7 03/20/2015 16:02:25 73.72, -66.00 73.88 03/20/2015 16:01:44 73.73, -65.99 73.89 0.67 41
8 03/20/2015 16:51:52 -73.80, 101.47 106.06 03/20/2015 16:52:25 -73.78, 101.45 106.08 2.38 33
9 03/23/2015 11:36:36 73.72, 0.45 72.76 03/23/2015 11:36:07 73.74, 0.44 72.78 1.84 29
10 03/23/2015 12:26:03 -73.80, 167.93 107.18 03/23/2015 12:26:48 -73.80, 167.90 107.19 1.00 45
11 03/26/2015 06:21:11 -73.27, -99.75 108.83 03/26/2015 06:20:02 -73.23,-101.66 108.79 61.10 69
12 03/26/2015 07:10:48 73.77, 66.81 71.70 03/26/2015 07:10:31 73.75, 66.86 71.67 3.05 17
13 03/26/2015 08:00:14 -73.79,-125.59 108.30 03/26/2015 08:01:12 -73.81,-125.67 108.29 3.40 58




NCC Satellite Simultaneous Nadir Overpasses (SNOs) Prediction Service
